Time,TemperatureF,DewpointF,PressureIn,WindDirection,WindDirectionDegrees,WindSpeedMPH,WindSpeedGustMPH,Humidity,HourlyPrecipIn,Conditions,Clouds,dailyrainin,SoftwareType,DateUTC
2013-01-28 00:01:00,58.6,33.1,29.25,North,-999,-999.0,-999.0,38,0.00,,,0.00,meteohub,2013-01-28 06:01:00,
2013-01-28 00:07:00,58.6,33.1,29.25,North,-999,-999.0,-999.0,38,0.00,,,0.00,meteohub,2013-01-28 06:07:00,
2013-01-28 00:12:00,58.8,33.3,29.25,North,-999,-999.0,-999.0,38,0.00,,,0.00,meteohub,2013-01-28 06:12:00,
2013-01-28 00:17:00,58.8,33.3,29.25,North,-999,-999.0,-999.0,38,0.00,,,0.00,meteohub,2013-01-28 06:17:00,
2013-01-28 00:22:00,58.8,33.3,29.25,North,-999,-999.0,-999.0,38,0.00,,,0.00,meteohub,2013-01-28 06:22:00,
2013-01-28 00:27:00,58.8,33.3,29.25,North,-999,-999.0,-999.0,38,0.00,,,0.00,meteohub,2013-01-28 06:27:00,
2013-01-28 00:32:00,58.8,33.3,29.25,North,-999,-999.0,-999.0,38,0.00,,,0.00,meteohub,2013-01-28 06:32:00,
2013-01-28 00:37:00,59.0,33.4,29.25,North,-999,-999.0,-999.0,38,0.00,,,0.00,meteohub,2013-01-28 06:37:00,
2013-01-28 00:42:00,59.2,33.6,29.22,North,-999,-999.0,-999.0,38,0.00,,,0.00,meteohub,2013-01-28 06:42:00,
2013-01-28 00:47:00,59.2,33.6,29.22,North,-999,-999.0,-999.0,38,0.00,,,0.00,meteohub,2013-01-28 06:47:00,
2013-01-28 00:52:00,59.2,33.6,29.22,North,-999,-999.0,-999.0,38,0.00,,,0.00,meteohub,2013-01-28 06:52:00,
2013-01-28 00:57:00,59.4,33.8,29.22,North,-999,-999.0,-999.0,38,0.00,,,0.00,meteohub,2013-01-28 06:57:00,
2013-01-28 01:03:00,59.4,33.8,29.22,North,-999,-999.0,-999.0,38,0.00,,,0.00,meteohub,2013-01-28 07:03:00,
2013-01-28 01:08:00,59.2,33.6,29.22,North,-999,-999.0,-999.0,38,0.00,,,0.00,meteohub,2013-01-28 07:08:00,
2013-01-28 01:13:00,59.4,33.8,29.22,North,-999,-999.0,-999.0,38,0.00,,,0.00,meteohub,2013-01-28 07:13:00,
2013-01-28 01:18:00,59.4,33.8,29.22,North,-999,-999.0,-999.0,38,0.00,,,0.00,meteohub,2013-01-28 07:18:00,
2013-01-28 01:23:00,59.5,34.0,29.22,North,-999,-999.0,-999.0,38,0.00,,,0.00,meteohub,2013-01-28 07:23:00,
2013-01-28 01:29:00,59.7,34.0,29.22,North,-999,-999.0,-999.0,38,0.00,,,0.00,meteohub,2013-01-28 07:29:00,
2013-01-28 01:34:00,59.7,34.0,29.22,North,-999,-999.0,-999.0,38,0.00,,,0.00,meteohub,2013-01-28 07:34:00,
2013-01-28 01:39:00,59.5,34.0,29.22,North,-999,-999.0,-999.0,38,0.00,,,0.00,meteohub,2013-01-28 07:39:00,
2013-01-28 01:45:00,59.5,34.0,29.22,North,-999,-999.0,-999.0,38,0.00,,,0.00,meteohub,2013-01-28 07:45:00,
2013-01-28 01:50:00,59.5,34.0,29.22,North,-999,-999.0,-999.0,38,0.00,,,0.00,meteohub,2013-01-28 07:50:00,
2013-01-28 01:55:00,59.4,33.8,29.22,North,-999,-999.0,-999.0,38,0.00,,,0.00,meteohub,2013-01-28 07:55:00,
2013-01-28 02:01:00,59.4,33.8,29.22,North,-999,-999.0,-999.0,38,0.00,,,0.00,meteohub,2013-01-28 08:01:00,
2013-01-28 02:06:00,59.5,34.0,29.22,North,-999,-999.0,-999.0,38,0.00,,,0.00,meteohub,2013-01-28 08:06:00,
2013-01-28 02:11:00,59.7,34.7,29.22,North,-999,-999.0,-999.0,39,0.00,,,0.00,meteohub,2013-01-28 08:11:00,
2013-01-28 02:16:00,59.7,34.0,29.22,North,-999,-999.0,-999.0,38,0.00,,,0.00,meteohub,2013-01-28 08:16:00,
2013-01-28 02:21:00,59.7,34.0,29.22,North,-999,-999.0,-999.0,38,0.00,,,0.00,meteohub,2013-01-28 08:21:00,
2013-01-28 02:27:00,59.9,34.2,29.25,North,-999,-999.0,-999.0,38,0.00,,,0.00,meteohub,2013-01-28 08:27:00,
2013-01-28 02:32:00,60.1,34.3,29.25,North,-999,-999.0,-999.0,38,0.00,,,0.00,meteohub,2013-01-28 08:32:00,
2013-01-28 02:37:00,60.1,34.3,29.25,North,-999,-999.0,-999.0,38,0.00,,,0.00,meteohub,2013-01-28 08:37:00,
2013-01-28 02:42:00,60.1,34.3,29.22,North,-999,-999.0,-999.0,38,0.00,,,0.00,meteohub,2013-01-28 08:42:00,
2013-01-28 02:47:00,60.4,34.7,29.22,North,-999,-999.0,-999.0,38,0.00,,,0.00,meteohub,2013-01-28 08:47:00,
2013-01-28 02:53:00,60.4,34.0,29.22,North,-999,-999.0,-999.0,37,0.00,,,0.00,meteohub,2013-01-28 08:53:00,
2013-01-28 02:58:00,60.3,33.8,29.22,North,-999,-999.0,-999.0,37,0.00,,,0.00,meteohub,2013-01-28 08:58:00,
2013-01-28 03:03:00,60.1,33.8,29.22,North,-999,-999.0,-999.0,37,0.00,,,0.00,meteohub,2013-01-28 09:03:00,
2013-01-28 03:09:00,59.9,34.2,29.22,North,-999,-999.0,-999.0,38,0.00,,,0.00,meteohub,2013-01-28 09:09:00,
2013-01-28 03:14:00,59.9,34.2,29.22,North,-999,-999.0,-999.0,38,0.00,,,0.00,meteohub,2013-01-28 09:14:00,
2013-01-28 03:19:00,59.7,34.0,29.22,North,-999,-999.0,-999.0,38,0.00,,,0.00,meteohub,2013-01-28 09:19:00,
2013-01-28 03:24:00,59.7,34.0,29.22,North,-999,-999.0,-999.0,38,0.00,,,0.00,meteohub,2013-01-28 09:24:00,
2013-01-28 03:29:00,59.5,34.0,29.22,North,-999,-999.0,-999.0,38,0.00,,,0.00,meteohub,2013-01-28 09:29:00,
2013-01-28 03:35:00,59.4,33.8,29.22,North,-999,-999.0,-999.0,38,0.00,,,0.00,meteohub,2013-01-28 09:35:00,
2013-01-28 03:40:00,59.4,33.8,29.22,North,-999,-999.0,-999.0,38,0.00,,,0.00,meteohub,2013-01-28 09:40:00,
2013-01-28 03:46:00,59.4,33.8,29.22,North,-999,-999.0,-999.0,38,0.00,,,0.00,meteohub,2013-01-28 09:46:00,
2013-01-28 03:51:00,59.2,33.6,29.22,North,-999,-999.0,-999.0,38,0.00,,,0.00,meteohub,2013-01-28 09:51:00,
2013-01-28 03:56:00,59.2,33.6,29.22,North,-999,-999.0,-999.0,38,0.00,,,0.00,meteohub,2013-01-28 09:56:00,
2013-01-28 04:01:00,59.0,33.4,29.22,North,-999,-999.0,-999.0,38,0.00,,,0.00,meteohub,2013-01-28 10:01:00,
2013-01-28 04:07:00,58.8,33.3,29.22,North,-999,-999.0,-999.0,38,0.00,,,0.00,meteohub,2013-01-28 10:07:00,
2013-01-28 04:12:00,58.8,33.3,29.22,North,-999,-999.0,-999.0,38,0.00,,,0.00,meteohub,2013-01-28 10:12:00,
2013-01-28 04:17:00,58.6,33.8,29.22,North,-999,-999.0,-999.0,39,0.00,,,0.00,meteohub,2013-01-28 10:17:00,
2013-01-28 04:22:00,58.6,33.8,29.22,North,-999,-999.0,-999.0,39,0.00,,,0.00,meteohub,2013-01-28 10:22:00,
2013-01-28 04:27:00,58.6,33.8,29.22,North,-999,-999.0,-999.0,39,0.00,,,0.00,meteohub,2013-01-28 10:27:00,
2013-01-28 04:32:00,58.5,33.6,29.22,North,-999,-999.0,-999.0,39,0.00,,,0.00,meteohub,2013-01-28 10:32:00,
2013-01-28 04:38:00,58.5,33.6,29.22,North,-999,-999.0,-999.0,39,0.00,,,0.00,meteohub,2013-01-28 10:38:00,
2013-01-28 04:43:00,58.3,33.4,29.22,North,-999,-999.0,-999.0,39,0.00,,,0.00,meteohub,2013-01-28 10:43:00,
2013-01-28 04:49:00,58.3,33.4,29.22,North,-999,-999.0,-999.0,39,0.00,,,0.00,meteohub,2013-01-28 10:49:00,
2013-01-28 04:54:00,58.1,33.3,29.22,North,-999,-999.0,-999.0,39,0.00,,,0.00,meteohub,2013-01-28 10:54:00,
2013-01-28 04:59:00,58.1,33.3,29.22,North,-999,-999.0,-999.0,39,0.00,,,0.00,meteohub,2013-01-28 10:59:00,
2013-01-28 05:05:00,58.1,33.3,29.22,North,-999,-999.0,-999.0,39,0.00,,,0.00,meteohub,2013-01-28 11:05:00,
2013-01-28 05:10:00,57.9,33.1,29.22,North,-999,-999.0,-999.0,39,0.00,,,0.00,meteohub,2013-01-28 11:10:00,
2013-01-28 05:15:00,57.9,33.1,29.22,North,-999,-999.0,-999.0,39,0.00,,,0.00,meteohub,2013-01-28 11:15:00,
2013-01-28 05:20:00,57.7,32.9,29.22,North,-999,-999.0,-999.0,39,0.00,,,0.00,meteohub,2013-01-28 11:20:00,
2013-01-28 05:26:00,57.7,32.9,29.22,North,-999,-999.0,-999.0,39,0.00,,,0.00,meteohub,2013-01-28 11:26:00,
2013-01-28 05:31:00,57.6,32.7,29.22,North,-999,-999.0,-999.0,39,0.00,,,0.00,meteohub,2013-01-28 11:31:00,
2013-01-28 05:36:00,57.6,32.7,29.22,North,-999,-999.0,-999.0,39,0.00,,,0.00,meteohub,2013-01-28 11:36:00,
2013-01-28 05:42:00,57.6,33.4,29.22,North,-999,-999.0,-999.0,40,0.00,,,0.00,meteohub,2013-01-28 11:42:00,
2013-01-28 05:47:00,57.4,33.3,29.22,North,-999,-999.0,-999.0,40,0.00,,,0.00,meteohub,2013-01-28 11:47:00,
2013-01-28 05:52:00,57.4,33.3,29.22,North,-999,-999.0,-999.0,40,0.00,,,0.00,meteohub,2013-01-28 11:52:00,
2013-01-28 05:57:00,57.4,33.3,29.22,North,-999,-999.0,-999.0,40,0.00,,,0.00,meteohub,2013-01-28 11:57:00,
2013-01-28 06:03:00,57.4,33.3,29.22,North,-999,-999.0,-999.0,40,0.00,,,0.00,meteohub,2013-01-28 12:03:00,
2013-01-28 06:08:00,57.4,33.3,29.22,North,-999,-999.0,-999.0,40,0.00,,,0.00,meteohub,2013-01-28 12:08:00,
2013-01-28 06:13:00,57.4,33.8,29.22,North,-999,-999.0,-999.0,41,0.00,,,0.00,meteohub,2013-01-28 12:13:00,
2013-01-28 06:19:00,57.4,33.8,29.22,North,-999,-999.0,-999.0,41,0.00,,,0.00,meteohub,2013-01-28 12:19:00,
2013-01-28 06:24:00,57.4,33.8,29.22,North,-999,-999.0,-999.0,41,0.00,,,0.00,meteohub,2013-01-28 12:24:00,
2013-01-28 06:29:00,57.4,33.8,29.22,North,-999,-999.0,-999.0,41,0.00,,,0.00,meteohub,2013-01-28 12:29:00,
2013-01-28 06:35:00,57.4,33.8,29.22,North,-999,-999.0,-999.0,41,0.00,,,0.00,meteohub,2013-01-28 12:35:00,
2013-01-28 06:40:00,57.6,34.0,29.22,North,-999,-999.0,-999.0,41,0.00,,,0.00,meteohub,2013-01-28 12:40:00,
2013-01-28 06:45:00,57.6,34.0,29.22,North,-999,-999.0,-999.0,41,0.00,,,0.00,meteohub,2013-01-28 12:45:00,
2013-01-28 06:50:00,57.6,34.7,29.22,North,-999,-999.0,-999.0,42,0.00,,,0.00,meteohub,2013-01-28 12:50:00,
2013-01-28 06:56:00,57.6,34.7,29.25,North,-999,-999.0,-999.0,42,0.00,,,0.00,meteohub,2013-01-28 12:56:00,
2013-01-28 07:01:00,57.6,34.7,29.25,North,-999,-999.0,-999.0,42,0.00,,,0.00,meteohub,2013-01-28 13:01:00,
2013-01-28 07:06:00,57.6,34.7,29.25,North,-999,-999.0,-999.0,42,0.00,,,0.00,meteohub,2013-01-28 13:06:00,
2013-01-28 07:12:00,57.6,34.7,29.25,North,-999,-999.0,-999.0,42,0.00,,,0.00,meteohub,2013-01-28 13:12:00,
2013-01-28 07:17:00,57.6,34.7,29.25,North,-999,-999.0,-999.0,42,0.00,,,0.00,meteohub,2013-01-28 13:17:00,
2013-01-28 07:22:00,57.6,34.7,29.25,North,-999,-999.0,-999.0,42,0.00,,,0.00,meteohub,2013-01-28 13:22:00,
2013-01-28 07:27:00,57.6,35.2,29.25,North,-999,-999.0,-999.0,43,0.00,,,0.00,meteohub,2013-01-28 13:27:00,
2013-01-28 07:32:00,57.6,35.2,29.25,North,-999,-999.0,-999.0,43,0.00,,,0.00,meteohub,2013-01-28 13:32:00,
2013-01-28 07:37:00,57.6,35.2,29.25,North,-999,-999.0,-999.0,43,0.00,,,0.00,meteohub,2013-01-28 13:37:00,
2013-01-28 07:42:00,57.6,35.2,29.25,North,-999,-999.0,-999.0,43,0.00,,,0.00,meteohub,2013-01-28 13:42:00,
2013-01-28 07:47:00,57.6,35.2,29.25,North,-999,-999.0,-999.0,43,0.00,,,0.00,meteohub,2013-01-28 13:47:00,
2013-01-28 07:52:00,57.7,35.4,29.25,North,-999,-999.0,-999.0,43,0.00,,,0.00,meteohub,2013-01-28 13:52:00,
2013-01-28 07:57:00,57.7,35.4,29.25,North,-999,-999.0,-999.0,43,0.00,,,0.00,meteohub,2013-01-28 13:57:00,
2013-01-28 08:02:00,57.9,36.1,29.25,North,-999,-999.0,-999.0,44,0.00,,,0.00,meteohub,2013-01-28 14:02:00,
2013-01-28 08:08:00,57.9,36.1,29.25,North,-999,-999.0,-999.0,44,0.00,,,0.00,meteohub,2013-01-28 14:08:00,
2013-01-28 08:13:00,57.9,36.1,29.25,North,-999,-999.0,-999.0,44,0.00,,,0.00,meteohub,2013-01-28 14:13:00,
2013-01-28 08:18:00,58.1,36.3,29.25,North,-999,-999.0,-999.0,44,0.00,,,0.00,meteohub,2013-01-28 14:18:00,
2013-01-28 08:24:00,58.1,36.3,29.25,North,-999,-999.0,-999.0,44,0.00,,,0.00,meteohub,2013-01-28 14:24:00,
2013-01-28 08:29:00,58.3,36.5,29.25,North,-999,-999.0,-999.0,44,0.00,,,0.00,meteohub,2013-01-28 14:29:00,
2013-01-28 08:34:00,58.5,36.7,29.25,North,-999,-999.0,-999.0,44,0.00,,,0.00,meteohub,2013-01-28 14:34:00,
2013-01-28 08:40:00,58.6,36.9,29.25,North,-999,-999.0,-999.0,44,0.00,,,0.00,meteohub,2013-01-28 14:40:00,
2013-01-28 08:45:00,58.8,37.0,29.25,North,-999,-999.0,-999.0,44,0.00,,,0.00,meteohub,2013-01-28 14:45:00,
2013-01-28 08:50:00,58.8,37.0,29.25,North,-999,-999.0,-999.0,44,0.00,,,0.00,meteohub,2013-01-28 14:50:00,
2013-01-28 08:55:00,59.0,37.0,29.25,North,-999,-999.0,-999.0,44,0.00,,,0.00,meteohub,2013-01-28 14:55:00,
2013-01-28 09:01:00,59.2,37.2,29.25,North,-999,-999.0,-999.0,44,0.00,,,0.00,meteohub,2013-01-28 15:01:00,
2013-01-28 09:06:00,59.2,37.2,29.25,North,-999,-999.0,-999.0,44,0.00,,,0.00,meteohub,2013-01-28 15:06:00,
2013-01-28 09:11:00,59.4,37.4,29.25,North,-999,-999.0,-999.0,44,0.00,,,0.00,meteohub,2013-01-28 15:11:00,
2013-01-28 09:17:00,59.5,37.6,29.25,North,-999,-999.0,-999.0,44,0.00,,,0.00,meteohub,2013-01-28 15:17:00,
2013-01-28 09:22:00,59.7,37.8,29.25,North,-999,-999.0,-999.0,44,0.00,,,0.00,meteohub,2013-01-28 15:22:00,
2013-01-28 09:27:00,59.9,37.9,29.25,North,-999,-999.0,-999.0,44,0.00,,,0.00,meteohub,2013-01-28 15:27:00,
2013-01-28 09:32:00,60.1,37.6,29.25,North,-999,-999.0,-999.0,43,0.00,,,0.00,meteohub,2013-01-28 15:32:00,
2013-01-28 09:37:00,60.3,37.8,29.25,North,-999,-999.0,-999.0,43,0.00,,,0.00,meteohub,2013-01-28 15:37:00,
2013-01-28 09:42:00,60.4,37.8,29.25,North,-999,-999.0,-999.0,43,0.00,,,0.00,meteohub,2013-01-28 15:42:00,
2013-01-28 09:47:00,60.8,38.1,29.25,North,-999,-999.0,-999.0,43,0.00,,,0.00,meteohub,2013-01-28 15:47:00,
2013-01-28 09:52:00,61.0,37.8,29.25,North,-999,-999.0,-999.0,42,0.00,,,0.00,meteohub,2013-01-28 15:52:00,
2013-01-28 09:57:00,61.3,38.1,29.25,North,-999,-999.0,-999.0,42,0.00,,,0.00,meteohub,2013-01-28 15:57:00,
2013-01-28 10:02:00,61.7,38.3,29.25,North,-999,-999.0,-999.0,42,0.00,,,0.00,meteohub,2013-01-28 16:02:00,
2013-01-28 10:07:00,62.1,38.1,29.25,North,-999,-999.0,-999.0,41,0.00,,,0.00,meteohub,2013-01-28 16:07:00,
2013-01-28 10:12:00,62.4,38.5,29.25,North,-999,-999.0,-999.0,41,0.00,,,0.00,meteohub,2013-01-28 16:12:00,
2013-01-28 10:17:00,63.0,38.3,29.25,North,-999,-999.0,-999.0,40,0.00,,,0.00,meteohub,2013-01-28 16:17:00,
2013-01-28 10:22:00,63.5,38.1,29.25,North,-999,-999.0,-999.0,39,0.00,,,0.00,meteohub,2013-01-28 16:22:00,
2013-01-28 10:27:00,64.0,38.7,29.22,North,-999,-999.0,-999.0,39,0.00,,,0.00,meteohub,2013-01-28 16:27:00,
2013-01-28 10:33:00,64.4,37.6,29.22,North,-999,-999.0,-999.0,37,0.00,,,0.00,meteohub,2013-01-28 16:33:00,
2013-01-28 10:38:00,65.1,37.6,29.22,North,-999,-999.0,-999.0,36,0.00,,,0.00,meteohub,2013-01-28 16:38:00,
2013-01-28 10:43:00,65.5,37.0,29.22,North,-999,-999.0,-999.0,35,0.00,,,0.00,meteohub,2013-01-28 16:43:00,
2013-01-28 10:49:00,65.7,37.2,29.22,North,-999,-999.0,-999.0,35,0.00,,,0.00,meteohub,2013-01-28 16:49:00,
2013-01-28 10:54:00,66.2,37.8,29.25,North,-999,-999.0,-999.0,35,0.00,,,0.00,meteohub,2013-01-28 16:54:00,
2013-01-28 10:59:00,66.7,37.4,29.25,North,-999,-999.0,-999.0,34,0.00,,,0.00,meteohub,2013-01-28 16:59:00,
2013-01-28 11:05:00,67.3,37.9,29.25,North,-999,-999.0,-999.0,34,0.00,,,0.00,meteohub,2013-01-28 17:05:00,
2013-01-28 11:10:00,67.6,38.3,29.22,North,-999,-999.0,-999.0,34,0.00,,,0.00,meteohub,2013-01-28 17:10:00,
2013-01-28 11:15:00,68.0,37.8,29.22,North,-999,-999.0,-999.0,33,0.00,,,0.00,meteohub,2013-01-28 17:15:00,
2013-01-28 11:21:00,68.9,38.7,29.22,North,-999,-999.0,-999.0,33,0.00,,,0.00,meteohub,2013-01-28 17:21:00,
2013-01-28 11:26:00,68.7,38.5,29.22,North,-999,-999.0,-999.0,33,0.00,,,0.00,meteohub,2013-01-28 17:26:00,
2013-01-28 11:31:00,69.3,38.8,29.22,North,-999,-999.0,-999.0,33,0.00,,,0.00,meteohub,2013-01-28 17:31:00,
2013-01-28 11:37:00,69.3,38.8,29.22,North,-999,-999.0,-999.0,33,0.00,,,0.00,meteohub,2013-01-28 17:37:00,
2013-01-28 11:42:00,69.6,39.2,29.22,North,-999,-999.0,-999.0,33,0.00,,,0.00,meteohub,2013-01-28 17:42:00,
2013-01-28 11:47:00,70.0,38.8,29.22,North,-999,-999.0,-999.0,32,0.00,,,0.00,meteohub,2013-01-28 17:47:00,
2013-01-28 11:52:00,69.4,39.0,29.22,North,-999,-999.0,-999.0,33,0.00,,,0.00,meteohub,2013-01-28 17:52:00,
2013-01-28 11:57:00,68.7,38.5,29.22,North,-999,-999.0,-999.0,33,0.00,,,0.00,meteohub,2013-01-28 17:57:00,
2013-01-28 12:02:00,68.7,38.5,29.22,North,-999,-999.0,-999.0,33,0.00,,,0.00,meteohub,2013-01-28 18:02:00,
2013-01-28 12:08:00,68.9,38.7,29.22,North,-999,-999.0,-999.0,33,0.00,,,0.00,meteohub,2013-01-28 18:08:00,
2013-01-28 12:13:00,69.4,39.0,29.22,North,-999,-999.0,-999.0,33,0.00,,,0.00,meteohub,2013-01-28 18:13:00,
2013-01-28 12:18:00,70.0,38.8,29.22,North,-999,-999.0,-999.0,32,0.00,,,0.00,meteohub,2013-01-28 18:18:00,
2013-01-28 12:24:00,70.2,38.8,29.22,North,-999,-999.0,-999.0,32,0.00,,,0.00,meteohub,2013-01-28 18:24:00,
2013-01-28 12:29:00,70.5,39.2,29.19,North,-999,-999.0,-999.0,32,0.00,,,0.00,meteohub,2013-01-28 18:29:00,
2013-01-28 12:34:00,70.5,39.2,29.19,North,-999,-999.0,-999.0,32,0.00,,,0.00,meteohub,2013-01-28 18:34:00,
2013-01-28 12:39:00,71.6,40.1,29.19,North,-999,-999.0,-999.0,32,0.00,,,0.00,meteohub,2013-01-28 18:39:00,
2013-01-28 12:45:00,70.9,39.6,29.19,North,-999,-999.0,-999.0,32,0.00,,,0.00,meteohub,2013-01-28 18:45:00,
2013-01-28 12:50:00,71.4,40.1,29.19,North,-999,-999.0,-999.0,32,0.00,,,0.00,meteohub,2013-01-28 18:50:00,
2013-01-28 12:55:00,72.0,40.5,29.16,North,-999,-999.0,-999.0,32,0.00,,,0.00,meteohub,2013-01-28 18:55:00,
2013-01-28 13:00:00,71.8,40.3,29.16,North,-999,-999.0,-999.0,32,0.00,,,0.00,meteohub,2013-01-28 19:00:00,
2013-01-28 13:06:00,72.1,40.6,29.16,North,-999,-999.0,-999.0,32,0.00,,,0.00,meteohub,2013-01-28 19:06:00,
2013-01-28 13:11:00,72.5,41.0,29.16,North,-999,-999.0,-999.0,32,0.00,,,0.00,meteohub,2013-01-28 19:11:00,
2013-01-28 13:16:00,71.8,40.3,29.16,North,-999,-999.0,-999.0,32,0.00,,,0.00,meteohub,2013-01-28 19:16:00,
2013-01-28 13:21:00,72.1,40.6,29.16,North,-999,-999.0,-999.0,32,0.00,,,0.00,meteohub,2013-01-28 19:21:00,
2013-01-28 13:27:00,72.1,40.6,29.16,North,-999,-999.0,-999.0,32,0.00,,,0.00,meteohub,2013-01-28 19:27:00,
2013-01-28 13:32:00,72.0,40.5,29.16,North,-999,-999.0,-999.0,32,0.00,,,0.00,meteohub,2013-01-28 19:32:00,
2013-01-28 13:37:00,72.9,41.4,29.16,North,-999,-999.0,-999.0,32,0.00,,,0.00,meteohub,2013-01-28 19:37:00,
2013-01-28 13:42:00,72.9,41.4,29.16,North,-999,-999.0,-999.0,32,0.00,,,0.00,meteohub,2013-01-28 19:42:00,
2013-01-28 13:47:00,72.3,40.8,29.16,North,-999,-999.0,-999.0,32,0.00,,,0.00,meteohub,2013-01-28 19:47:00,
2013-01-28 13:52:00,72.5,41.0,29.16,North,-999,-999.0,-999.0,32,0.00,,,0.00,meteohub,2013-01-28 19:52:00,
2013-01-28 13:57:00,72.3,40.8,29.16,North,-999,-999.0,-999.0,32,0.00,,,0.00,meteohub,2013-01-28 19:57:00,
2013-01-28 14:02:00,73.2,41.5,29.16,North,-999,-999.0,-999.0,32,0.00,,,0.00,meteohub,2013-01-28 20:02:00,
2013-01-28 14:07:00,73.6,41.0,29.16,North,-999,-999.0,-999.0,31,0.00,,,0.00,meteohub,2013-01-28 20:07:00,
2013-01-28 14:12:00,73.6,41.0,29.16,North,-999,-999.0,-999.0,31,0.00,,,0.00,meteohub,2013-01-28 20:12:00,
2013-01-28 14:17:00,73.4,41.0,29.16,North,-999,-999.0,-999.0,31,0.00,,,0.00,meteohub,2013-01-28 20:17:00,
2013-01-28 14:22:00,73.2,41.5,29.16,North,-999,-999.0,-999.0,32,0.00,,,0.00,meteohub,2013-01-28 20:22:00,
2013-01-28 14:27:00,72.9,41.4,29.16,North,-999,-999.0,-999.0,32,0.00,,,0.00,meteohub,2013-01-28 20:27:00,
2013-01-28 14:32:00,72.9,41.4,29.16,North,-999,-999.0,-999.0,32,0.00,,,0.00,meteohub,2013-01-28 20:32:00,
2013-01-28 14:37:00,73.2,41.5,29.16,North,-999,-999.0,-999.0,32,0.00,,,0.00,meteohub,2013-01-28 20:37:00,
2013-01-28 14:42:00,73.0,41.4,29.16,North,-999,-999.0,-999.0,32,0.00,,,0.00,meteohub,2013-01-28 20:42:00,
2013-01-28 14:47:00,73.4,41.0,29.16,North,-999,-999.0,-999.0,31,0.00,,,0.00,meteohub,2013-01-28 20:47:00,
2013-01-28 14:52:00,73.2,41.5,29.16,North,-999,-999.0,-999.0,32,0.00,,,0.00,meteohub,2013-01-28 20:52:00,
2013-01-28 14:57:00,72.9,41.4,29.16,North,-999,-999.0,-999.0,32,0.00,,,0.00,meteohub,2013-01-28 20:57:00,
2013-01-28 15:02:00,72.7,41.2,29.16,North,-999,-999.0,-999.0,32,0.00,,,0.00,meteohub,2013-01-28 21:02:00,
2013-01-28 15:08:00,72.5,41.0,29.16,North,-999,-999.0,-999.0,32,0.00,,,0.00,meteohub,2013-01-28 21:08:00,
2013-01-28 15:13:00,72.3,40.8,29.16,North,-999,-999.0,-999.0,32,0.00,,,0.00,meteohub,2013-01-28 21:13:00,
2013-01-28 15:18:00,72.1,40.6,29.16,North,-999,-999.0,-999.0,32,0.00,,,0.00,meteohub,2013-01-28 21:18:00,
2013-01-28 15:23:00,72.3,40.8,29.16,North,-999,-999.0,-999.0,32,0.00,,,0.00,meteohub,2013-01-28 21:23:00,
2013-01-28 15:29:00,72.1,40.6,29.16,North,-999,-999.0,-999.0,32,0.00,,,0.00,meteohub,2013-01-28 21:29:00,
2013-01-28 15:34:00,72.5,41.0,29.16,North,-999,-999.0,-999.0,32,0.00,,,0.00,meteohub,2013-01-28 21:34:00,
2013-01-28 15:40:00,72.3,40.8,29.16,North,-999,-999.0,-999.0,32,0.00,,,0.00,meteohub,2013-01-28 21:40:00,
2013-01-28 15:45:00,72.0,40.5,29.16,North,-999,-999.0,-999.0,32,0.00,,,0.00,meteohub,2013-01-28 21:45:00,
2013-01-28 15:50:00,71.8,40.3,29.16,North,-999,-999.0,-999.0,32,0.00,,,0.00,meteohub,2013-01-28 21:50:00,
2013-01-28 15:55:00,71.8,40.3,29.16,North,-999,-999.0,-999.0,32,0.00,,,0.00,meteohub,2013-01-28 21:55:00,
2013-01-28 16:00:00,71.8,40.3,29.16,North,-999,-999.0,-999.0,32,0.00,,,0.00,meteohub,2013-01-28 22:00:00,
2013-01-28 16:06:00,71.8,40.3,29.16,North,-999,-999.0,-999.0,32,0.00,,,0.00,meteohub,2013-01-28 22:06:00,
2013-01-28 16:11:00,72.0,40.5,29.13,North,-999,-999.0,-999.0,32,0.00,,,0.00,meteohub,2013-01-28 22:11:00,
2013-01-28 16:17:00,72.0,40.5,29.13,North,-999,-999.0,-999.0,32,0.00,,,0.00,meteohub,2013-01-28 22:17:00,
2013-01-28 16:22:00,71.8,40.3,29.13,North,-999,-999.0,-999.0,32,0.00,,,0.00,meteohub,2013-01-28 22:22:00,
2013-01-28 16:27:00,71.6,40.1,29.13,North,-999,-999.0,-999.0,32,0.00,,,0.00,meteohub,2013-01-28 22:27:00,
2013-01-28 16:32:00,71.6,40.1,29.13,North,-999,-999.0,-999.0,32,0.00,,,0.00,meteohub,2013-01-28 22:32:00,
2013-01-28 16:37:00,71.4,40.1,29.13,North,-999,-999.0,-999.0,32,0.00,,,0.00,meteohub,2013-01-28 22:37:00,
2013-01-28 16:42:00,71.4,40.1,29.13,North,-999,-999.0,-999.0,32,0.00,,,0.00,meteohub,2013-01-28 22:42:00,
2013-01-28 16:48:00,71.2,39.9,29.13,North,-999,-999.0,-999.0,32,0.00,,,0.00,meteohub,2013-01-28 22:48:00,
2013-01-28 16:53:00,71.1,39.7,29.13,North,-999,-999.0,-999.0,32,0.00,,,0.00,meteohub,2013-01-28 22:53:00,
2013-01-28 16:58:00,70.9,39.6,29.13,North,-999,-999.0,-999.0,32,0.00,,,0.00,meteohub,2013-01-28 22:58:00,
2013-01-28 17:04:00,70.5,39.2,29.13,North,-999,-999.0,-999.0,32,0.00,,,0.00,meteohub,2013-01-28 23:04:00,
2013-01-28 17:09:00,70.2,38.8,29.13,North,-999,-999.0,-999.0,32,0.00,,,0.00,meteohub,2013-01-28 23:09:00,
2013-01-28 17:14:00,70.2,38.8,29.13,North,-999,-999.0,-999.0,32,0.00,,,0.00,meteohub,2013-01-28 23:14:00,
2013-01-28 17:20:00,70.0,38.8,29.13,North,-999,-999.0,-999.0,32,0.00,,,0.00,meteohub,2013-01-28 23:20:00,
2013-01-28 17:25:00,69.8,38.7,29.13,North,-999,-999.0,-999.0,32,0.00,,,0.00,meteohub,2013-01-28 23:25:00,
2013-01-28 17:31:00,69.6,39.2,29.13,North,-999,-999.0,-999.0,33,0.00,,,0.00,meteohub,2013-01-28 23:31:00,
2013-01-28 17:36:00,69.3,38.8,29.13,North,-999,-999.0,-999.0,33,0.00,,,0.00,meteohub,2013-01-28 23:36:00,
2013-01-28 17:41:00,69.1,38.8,29.10,North,-999,-999.0,-999.0,33,0.00,,,0.00,meteohub,2013-01-28 23:41:00,
2013-01-28 17:46:00,68.9,38.7,29.10,North,-999,-999.0,-999.0,33,0.00,,,0.00,meteohub,2013-01-28 23:46:00,
2013-01-28 17:52:00,68.7,38.5,29.10,North,-999,-999.0,-999.0,33,0.00,,,0.00,meteohub,2013-01-28 23:52:00,
2013-01-28 17:57:00,68.7,38.5,29.10,North,-999,-999.0,-999.0,33,0.00,,,0.00,meteohub,2013-01-28 23:57:00,
2013-01-28 18:02:00,68.7,38.5,29.10,North,-999,-999.0,-999.0,33,0.00,,,0.00,meteohub,2013-01-29 00:02:00,
2013-01-28 18:07:00,68.5,38.3,29.10,North,-999,-999.0,-999.0,33,0.00,,,0.00,meteohub,2013-01-29 00:07:00,
2013-01-28 18:12:00,68.4,38.1,29.10,North,-999,-999.0,-999.0,33,0.00,,,0.00,meteohub,2013-01-29 00:12:00,
2013-01-28 18:17:00,68.4,38.1,29.10,North,-999,-999.0,-999.0,33,0.00,,,0.00,meteohub,2013-01-29 00:17:00,
2013-01-28 18:22:00,68.2,37.9,29.10,North,-999,-999.0,-999.0,33,0.00,,,0.00,meteohub,2013-01-29 00:22:00,
2013-01-28 18:27:00,68.2,37.9,29.13,North,-999,-999.0,-999.0,33,0.00,,,0.00,meteohub,2013-01-29 00:27:00,
2013-01-28 18:32:00,68.2,37.9,29.13,North,-999,-999.0,-999.0,33,0.00,,,0.00,meteohub,2013-01-29 00:32:00,
2013-01-28 18:37:00,68.2,37.9,29.13,North,-999,-999.0,-999.0,33,0.00,,,0.00,meteohub,2013-01-29 00:37:00,
2013-01-28 18:42:00,68.2,37.9,29.13,North,-999,-999.0,-999.0,33,0.00,,,0.00,meteohub,2013-01-29 00:42:00,
2013-01-28 18:47:00,68.0,37.8,29.13,North,-999,-999.0,-999.0,33,0.00,,,0.00,meteohub,2013-01-29 00:47:00,
2013-01-28 18:52:00,67.8,37.6,29.13,North,-999,-999.0,-999.0,33,0.00,,,0.00,meteohub,2013-01-29 00:52:00,
2013-01-28 18:57:00,67.8,37.6,29.10,North,-999,-999.0,-999.0,33,0.00,,,0.00,meteohub,2013-01-29 00:57:00,
2013-01-28 19:02:00,68.0,37.8,29.10,North,-999,-999.0,-999.0,33,0.00,,,0.00,meteohub,2013-01-29 01:02:00,
2013-01-28 19:07:00,68.0,37.8,29.10,North,-999,-999.0,-999.0,33,0.00,,,0.00,meteohub,2013-01-29 01:07:00,
2013-01-28 19:12:00,67.8,37.6,29.10,North,-999,-999.0,-999.0,33,0.00,,,0.00,meteohub,2013-01-29 01:12:00,
2013-01-28 19:17:00,67.8,37.6,29.10,North,-999,-999.0,-999.0,33,0.00,,,0.00,meteohub,2013-01-29 01:17:00,
2013-01-28 19:22:00,67.6,37.6,29.10,North,-999,-999.0,-999.0,33,0.00,,,0.00,meteohub,2013-01-29 01:22:00,
2013-01-28 19:27:00,67.5,37.4,29.10,North,-999,-999.0,-999.0,33,0.00,,,0.00,meteohub,2013-01-29 01:27:00,
2013-01-28 19:32:00,67.5,37.4,29.10,North,-999,-999.0,-999.0,33,0.00,,,0.00,meteohub,2013-01-29 01:32:00,
2013-01-28 19:37:00,67.6,37.6,29.10,North,-999,-999.0,-999.0,33,0.00,,,0.00,meteohub,2013-01-29 01:37:00,
2013-01-28 19:42:00,67.5,37.4,29.10,North,-999,-999.0,-999.0,33,0.00,,,0.00,meteohub,2013-01-29 01:42:00,
2013-01-28 19:47:00,67.5,37.4,29.10,North,-999,-999.0,-999.0,33,0.00,,,0.00,meteohub,2013-01-29 01:47:00,
2013-01-28 19:52:00,67.3,37.2,29.10,North,-999,-999.0,-999.0,33,0.00,,,0.00,meteohub,2013-01-29 01:52:00,
2013-01-28 19:57:00,67.5,37.4,29.10,North,-999,-999.0,-999.0,33,0.00,,,0.00,meteohub,2013-01-29 01:57:00,
2013-01-28 20:02:00,67.5,37.4,29.10,North,-999,-999.0,-999.0,33,0.00,,,0.00,meteohub,2013-01-29 02:02:00,
2013-01-28 20:07:00,67.3,37.2,29.10,North,-999,-999.0,-999.0,33,0.00,,,0.00,meteohub,2013-01-29 02:07:00,
2013-01-28 20:12:00,67.5,37.4,29.10,North,-999,-999.0,-999.0,33,0.00,,,0.00,meteohub,2013-01-29 02:12:00,
2013-01-28 20:17:00,67.5,37.4,29.10,North,-999,-999.0,-999.0,33,0.00,,,0.00,meteohub,2013-01-29 02:17:00,
2013-01-28 20:22:00,67.6,37.6,29.10,North,-999,-999.0,-999.0,33,0.00,,,0.00,meteohub,2013-01-29 02:22:00,
2013-01-28 20:27:00,67.8,37.6,29.10,North,-999,-999.0,-999.0,33,0.00,,,0.00,meteohub,2013-01-29 02:27:00,
2013-01-28 20:32:00,67.6,37.6,29.10,North,-999,-999.0,-999.0,33,0.00,,,0.00,meteohub,2013-01-29 02:32:00,
2013-01-28 20:37:00,67.5,37.4,29.10,North,-999,-999.0,-999.0,33,0.00,,,0.00,meteohub,2013-01-29 02:37:00,
2013-01-28 20:42:00,67.5,37.4,29.10,North,-999,-999.0,-999.0,33,0.00,,,0.00,meteohub,2013-01-29 02:42:00,
2013-01-28 20:48:00,67.5,37.4,29.10,North,-999,-999.0,-999.0,33,0.00,,,0.00,meteohub,2013-01-29 02:48:00,
2013-01-28 20:53:00,67.5,37.4,29.10,North,-999,-999.0,-999.0,33,0.00,,,0.00,meteohub,2013-01-29 02:53:00,
2013-01-28 20:59:00,67.6,37.6,29.10,North,-999,-999.0,-999.0,33,0.00,,,0.00,meteohub,2013-01-29 02:59:00,
2013-01-28 21:04:00,67.8,37.6,29.10,North,-999,-999.0,-999.0,33,0.00,,,0.00,meteohub,2013-01-29 03:04:00,
2013-01-28 21:09:00,67.8,37.6,29.13,North,-999,-999.0,-999.0,33,0.00,,,0.00,meteohub,2013-01-29 03:09:00,
2013-01-28 21:15:00,68.0,37.8,29.13,North,-999,-999.0,-999.0,33,0.00,,,0.00,meteohub,2013-01-29 03:15:00,
2013-01-28 21:20:00,68.0,37.8,29.13,North,-999,-999.0,-999.0,33,0.00,,,0.00,meteohub,2013-01-29 03:20:00,
2013-01-28 21:25:00,67.8,37.6,29.13,North,-999,-999.0,-999.0,33,0.00,,,0.00,meteohub,2013-01-29 03:25:00,
2013-01-28 21:31:00,68.0,37.8,29.13,North,-999,-999.0,-999.0,33,0.00,,,0.00,meteohub,2013-01-29 03:31:00,
2013-01-28 21:36:00,68.0,37.8,29.13,North,-999,-999.0,-999.0,33,0.00,,,0.00,meteohub,2013-01-29 03:36:00,
2013-01-28 21:41:00,68.0,37.8,29.10,North,-999,-999.0,-999.0,33,0.00,,,0.00,meteohub,2013-01-29 03:41:00,
2013-01-28 21:47:00,68.0,37.8,29.10,North,-999,-999.0,-999.0,33,0.00,,,0.00,meteohub,2013-01-29 03:47:00,
2013-01-28 21:52:00,67.8,37.6,29.10,North,-999,-999.0,-999.0,33,0.00,,,0.00,meteohub,2013-01-29 03:52:00,
2013-01-28 21:57:00,67.8,37.6,29.10,North,-999,-999.0,-999.0,33,0.00,,,0.00,meteohub,2013-01-29 03:57:00,
2013-01-28 22:02:00,68.0,37.8,29.10,North,-999,-999.0,-999.0,33,0.00,,,0.00,meteohub,2013-01-29 04:02:00,
2013-01-28 22:07:00,68.2,37.9,29.10,North,-999,-999.0,-999.0,33,0.00,,,0.00,meteohub,2013-01-29 04:07:00,
2013-01-28 22:12:00,68.2,37.9,29.10,North,-999,-999.0,-999.0,33,0.00,,,0.00,meteohub,2013-01-29 04:12:00,
2013-01-28 22:17:00,68.0,37.8,29.10,North,-999,-999.0,-999.0,33,0.00,,,0.00,meteohub,2013-01-29 04:17:00,
2013-01-28 22:22:00,67.8,37.6,29.10,North,-999,-999.0,-999.0,33,0.00,,,0.00,meteohub,2013-01-29 04:22:00,
2013-01-28 22:27:00,67.8,37.6,29.10,North,-999,-999.0,-999.0,33,0.00,,,0.00,meteohub,2013-01-29 04:27:00,
2013-01-28 22:33:00,68.0,37.8,29.10,North,-999,-999.0,-999.0,33,0.00,,,0.00,meteohub,2013-01-29 04:33:00,
2013-01-28 22:38:00,68.0,37.8,29.10,North,-999,-999.0,-999.0,33,0.00,,,0.00,meteohub,2013-01-29 04:38:00,
2013-01-28 22:43:00,67.8,37.6,29.10,North,-999,-999.0,-999.0,33,0.00,,,0.00,meteohub,2013-01-29 04:43:00,
2013-01-28 22:48:00,67.8,37.6,29.10,North,-999,-999.0,-999.0,33,0.00,,,0.00,meteohub,2013-01-29 04:48:00,
2013-01-28 22:54:00,67.6,37.6,29.10,North,-999,-999.0,-999.0,33,0.00,,,0.00,meteohub,2013-01-29 04:54:00,
2013-01-28 22:59:00,67.5,37.4,29.10,North,-999,-999.0,-999.0,33,0.00,,,0.00,meteohub,2013-01-29 04:59:00,
2013-01-28 23:03:00,67.5,37.4,29.10,North,-999,-999.0,-999.0,33,0.00,,,0.00,meteohub,2013-01-29 05:03:00,
2013-01-28 23:04:00,67.5,37.4,29.10,North,-999,-999.0,-999.0,33,0.00,,,0.00,meteohub,2013-01-29 05:04:00,
2013-01-28 23:07:00,67.3,37.2,29.10,North,-999,-999.0,-999.0,33,0.00,,,0.00,meteohub,2013-01-29 05:07:00,
2013-01-28 23:12:00,67.3,37.2,29.10,North,-999,-999.0,-999.0,33,0.00,,,0.00,meteohub,2013-01-29 05:12:00,
2013-01-28 23:17:00,67.1,37.0,29.10,North,-999,-999.0,-999.0,33,0.00,,,0.00,meteohub,2013-01-29 05:17:00,
2013-01-28 23:22:00,66.9,36.9,29.10,North,-999,-999.0,-999.0,33,0.00,,,0.00,meteohub,2013-01-29 05:22:00,
2013-01-28 23:27:00,66.9,37.6,29.10,North,-999,-999.0,-999.0,34,0.00,,,0.00,meteohub,2013-01-29 05:27:00,
2013-01-28 23:32:00,66.7,37.4,29.10,North,-999,-999.0,-999.0,34,0.00,,,0.00,meteohub,2013-01-29 05:32:00,
2013-01-28 23:37:00,66.7,37.4,29.10,North,-999,-999.0,-999.0,34,0.00,,,0.00,meteohub,2013-01-29 05:37:00,
2013-01-28 23:43:00,66.9,37.6,29.10,North,-999,-999.0,-999.0,34,0.00,,,0.00,meteohub,2013-01-29 05:43:00,
2013-01-28 23:48:00,66.9,37.6,29.10,North,-999,-999.0,-999.0,34,0.00,,,0.00,meteohub,2013-01-29 05:48:00,
2013-01-28 23:53:00,66.7,37.4,29.10,North,-999,-999.0,-999.0,34,0.00,,,0.00,meteohub,2013-01-29 05:53:00,
2013-01-28 23:59:00,66.6,37.4,29.10,North,-999,-999.0,-999.0,34,0.00,,,0.00,meteohub,2013-01-29 05:59:00,